Time,TemperatureF,DewpointF,PressureIn,WindDirection,WindDirectionDegrees,WindSpeedMPH,WindSpeedGustMPH,Humidity,HourlyPrecipIn,Conditions,Clouds,dailyrainin,SoftwareType,DateUTC
2013-04-20 00:01:00,57.0,38.0,29.93,NE,53,2.0,3.0,49,0.00,,,0.00,,2013-04-19 21:01:00,
2013-04-20 00:11:00,57.0,38.0,29.93,NE,50,1.0,3.0,49,0.00,,,0.00,,2013-04-19 21:11:00,
2013-04-20 00:21:00,57.0,38.0,29.93,NE,50,1.0,3.0,49,0.00,,,0.00,,2013-04-19 21:21:00,
2013-04-20 00:32:00,57.0,38.0,29.93,NE,43,1.0,2.0,49,0.00,,,0.00,,2013-04-19 21:32:00,
2013-04-20 00:42:00,57.0,38.0,29.93,NE,43,1.0,2.0,49,0.00,,,0.00,,2013-04-19 21:42:00,
2013-04-20 00:52:00,57.0,39.0,29.93,NE,52,0.0,2.0,50,0.00,,,0.00,,2013-04-19 21:52:00,
2013-04-20 01:02:00,57.0,39.0,29.92,NE,47,0.0,2.0,50,0.00,,,0.00,,2013-04-19 22:02:00,
2013-04-20 01:12:00,57.0,39.0,29.92,NNE,16,0.0,2.0,51,0.00,,,0.00,,2013-04-19 22:12:00,
2013-04-20 01:22:00,57.0,39.0,29.92,NNE,16,0.0,2.0,51,0.00,,,0.00,,2013-04-19 22:22:00,
2013-04-20 01:33:00,57.0,39.0,29.92,NNE,24,0.0,2.0,51,0.00,,,0.00,,2013-04-19 22:33:00,
2013-04-20 01:41:00,56.0,39.0,29.92,NE,45,0.0,0.0,52,0.00,,,0.00,,2013-04-19 22:41:00,
2013-04-20 01:52:00,56.0,39.0,29.92,NE,45,0.0,0.0,52,0.00,,,0.00,,2013-04-19 22:52:00,
2013-04-20 02:02:00,56.0,39.0,29.92,NE,45,0.0,0.0,53,0.00,,,0.00,,2013-04-19 23:02:00,
2013-04-20 02:11:00,56.0,39.0,29.92,NE,45,0.0,0.0,53,0.00,,,0.00,,2013-04-19 23:11:00,
2013-04-20 02:22:00,56.0,40.0,29.91,North,0,0.0,0.0,54,0.00,,,0.00,,2013-04-19 23:22:00,
2013-04-20 02:31:00,57.0,40.0,29.91,NNE,21,0.0,3.0,53,0.00,,,0.00,,2013-04-19 23:31:00,
2013-04-20 02:42:00,57.0,40.0,29.91,NNE,21,0.0,3.0,53,0.00,,,0.00,,2013-04-19 23:42:00,
2013-04-20 02:52:00,56.0,39.0,29.91,SE,126,0.0,0.0,53,0.00,,,0.00,,2013-04-19 23:52:00,
2013-04-20 03:01:00,56.0,40.0,29.91,NE,54,0.0,2.0,54,0.00,,,0.00,,2013-04-20 00:01:00,
2013-04-20 03:11:00,56.0,40.0,29.91,NE,54,0.0,2.0,54,0.00,,,0.00,,2013-04-20 00:11:00,
2013-04-20 03:21:00,56.0,39.0,29.91,NE,46,0.0,1.0,53,0.00,,,0.00,,2013-04-20 00:21:00,
2013-04-20 03:31:00,56.0,39.0,29.91,North,0,0.0,0.0,53,0.00,,,0.00,,2013-04-20 00:31:00,
2013-04-20 03:41:00,56.0,39.0,29.91,North,0,0.0,0.0,53,0.00,,,0.00,,2013-04-20 00:41:00,
2013-04-20 03:51:00,56.0,40.0,29.91,ENE,61,0.0,1.0,54,0.00,,,0.00,,2013-04-20 00:51:00,
2013-04-20 04:01:00,56.0,40.0,29.91,NNE,24,0.0,3.0,54,0.00,,,0.00,,2013-04-20 01:01:00,
2013-04-20 04:11:00,56.0,40.0,29.91,NNE,24,0.0,3.0,54,0.00,,,0.00,,2013-04-20 01:11:00,
2013-04-20 04:21:00,56.0,40.0,29.90,NE,49,1.0,2.0,54,0.00,,,0.00,,2013-04-20 01:21:00,
2013-04-20 04:32:00,56.0,40.0,29.90,NE,40,1.0,6.0,55,0.00,,,0.00,,2013-04-20 01:32:00,
2013-04-20 04:41:00,56.0,40.0,29.90,NE,40,1.0,6.0,55,0.00,,,0.00,,2013-04-20 01:41:00,
2013-04-20 04:51:00,56.0,40.0,29.90,NE,54,1.0,3.0,55,0.00,,,0.00,,2013-04-20 01:51:00,
2013-04-20 05:01:00,56.0,40.0,29.90,NNE,12,0.0,2.0,55,0.00,,,0.00,,2013-04-20 02:01:00,
2013-04-20 05:11:00,55.0,40.0,29.89,East,97,0.0,1.0,56,0.00,,,0.00,,2013-04-20 02:11:00,
2013-04-20 05:21:00,55.0,40.0,29.89,East,97,0.0,1.0,56,0.00,,,0.00,,2013-04-20 02:21:00,
2013-04-20 05:32:00,55.0,40.0,29.90,East,88,0.0,1.0,56,0.00,,,0.00,,2013-04-20 02:32:00,
2013-04-20 05:42:00,55.0,40.0,29.90,East,88,0.0,1.0,56,0.00,,,0.00,,2013-04-20 02:42:00,
2013-04-20 05:52:00,55.0,40.0,29.90,NE,45,0.0,0.0,56,0.00,,,0.00,,2013-04-20 02:52:00,
2013-04-20 06:01:00,55.0,41.0,29.90,ENE,59,0.0,1.0,58,0.00,,,0.00,,2013-04-20 03:01:00,
2013-04-20 06:11:00,55.0,41.0,29.91,East,97,0.0,0.0,59,0.00,,,0.00,,2013-04-20 03:11:00,
2013-04-20 06:21:00,55.0,41.0,29.91,East,97,0.0,0.0,59,0.00,,,0.00,,2013-04-20 03:21:00,
2013-04-20 06:33:00,55.0,42.0,29.91,ENE,65,0.0,2.0,61,0.00,,,0.00,,2013-04-20 03:33:00,
2013-04-20 06:43:00,55.0,42.0,29.91,NE,45,0.0,1.0,61,0.00,,,0.00,,2013-04-20 03:43:00,
2013-04-20 06:52:00,55.0,42.0,29.91,NE,45,0.0,1.0,61,0.00,,,0.00,,2013-04-20 03:52:00,
2013-04-20 07:02:00,55.0,42.0,29.91,NE,48,0.0,2.0,62,0.00,,,0.00,,2013-04-20 04:02:00,
2013-04-20 07:12:00,55.0,42.0,29.91,NE,48,0.0,2.0,62,0.00,,,0.00,,2013-04-20 04:12:00,
2013-04-20 07:22:00,55.0,42.0,29.91,NE,45,2.0,3.0,62,0.00,,,0.00,,2013-04-20 04:22:00,
2013-04-20 07:32:00,55.0,42.0,29.92,NE,38,1.0,2.0,62,0.00,,,0.00,,2013-04-20 04:32:00,
2013-04-20 07:42:00,55.0,42.0,29.92,NE,38,1.0,2.0,62,0.00,,,0.00,,2013-04-20 04:42:00,
2013-04-20 07:52:00,56.0,44.0,29.92,NE,45,0.0,3.0,63,0.00,,,0.00,,2013-04-20 04:52:00,
2013-04-20 08:01:00,56.0,44.0,29.93,NE,36,2.0,3.0,63,0.00,,,0.00,,2013-04-20 05:01:00,
2013-04-20 08:12:00,56.0,44.0,29.93,NE,36,2.0,3.0,63,0.00,,,0.00,,2013-04-20 05:12:00,
2013-04-20 08:21:00,56.0,44.0,29.93,NE,35,2.0,3.0,63,0.00,,,0.00,,2013-04-20 05:21:00,
2013-04-20 08:32:00,58.0,45.0,29.94,NE,35,1.0,3.0,61,0.00,,,0.00,,2013-04-20 05:32:00,
2013-04-20 08:42:00,58.0,45.0,29.94,NE,35,1.0,3.0,61,0.00,,,0.00,,2013-04-20 05:42:00,
2013-04-20 08:51:00,60.0,44.0,29.93,NE,51,1.0,3.0,56,0.00,,,0.00,,2013-04-20 05:51:00,
2013-04-20 09:01:00,59.0,45.0,29.94,NE,36,1.0,3.0,59,0.00,,,0.00,,2013-04-20 06:01:00,
2013-04-20 09:12:00,59.0,45.0,29.94,NE,36,1.0,3.0,59,0.00,,,0.00,,2013-04-20 06:12:00,
2013-04-20 09:21:00,59.0,45.0,29.94,NE,48,2.0,4.0,59,0.00,,,0.00,,2013-04-20 06:21:00,
2013-04-20 09:31:00,60.0,45.0,29.94,NE,54,3.0,4.0,57,0.00,,,0.00,,2013-04-20 06:31:00,
2013-04-20 09:42:00,60.0,45.0,29.94,NE,54,3.0,4.0,57,0.00,,,0.00,,2013-04-20 06:42:00,
2013-04-20 09:52:00,62.0,46.0,29.94,North,351,5.0,9.0,55,0.00,,,0.00,,2013-04-20 06:52:00,
2013-04-20 10:01:00,62.0,45.0,29.95,NNE,19,3.0,8.0,54,0.00,,,0.00,,2013-04-20 07:01:00,
2013-04-20 10:11:00,62.0,45.0,29.95,NNE,19,3.0,8.0,54,0.00,,,0.00,,2013-04-20 07:11:00,
2013-04-20 10:21:00,63.0,46.0,29.95,North,9,3.0,7.0,53,0.00,,,0.00,,2013-04-20 07:21:00,
2013-04-20 10:31:00,62.0,45.0,29.95,West,280,1.0,3.0,53,0.00,,,0.00,,2013-04-20 07:31:00,
2013-04-20 10:42:00,62.0,45.0,29.96,WNW,302,1.0,4.0,54,0.00,,,0.00,,2013-04-20 07:42:00,
2013-04-20 10:52:00,62.0,45.0,29.96,WNW,302,1.0,4.0,54,0.00,,,0.00,,2013-04-20 07:52:00,
2013-04-20 11:01:00,63.0,45.0,29.96,WSW,252,1.0,5.0,52,0.00,,,0.00,,2013-04-20 08:01:00,
2013-04-20 11:11:00,63.0,45.0,29.96,WSW,252,1.0,5.0,52,0.00,,,0.00,,2013-04-20 08:11:00,
2013-04-20 11:21:00,64.0,44.0,29.96,NE,53,6.0,9.0,48,0.00,,,0.00,,2013-04-20 08:21:00,
2013-04-20 11:31:00,63.0,43.0,29.96,North,11,6.0,12.0,48,0.00,,,0.00,,2013-04-20 08:31:00,
2013-04-20 11:42:00,63.0,43.0,29.96,North,11,6.0,12.0,48,0.00,,,0.00,,2013-04-20 08:42:00,
2013-04-20 11:51:00,64.0,43.0,29.96,NNE,17,5.0,8.0,47,0.00,,,0.00,,2013-04-20 08:51:00,
2013-04-20 12:01:00,66.0,45.0,29.96,North,7,8.0,12.0,46,0.00,,,0.00,,2013-04-20 09:01:00,
2013-04-20 12:11:00,66.0,45.0,29.96,North,7,8.0,12.0,46,0.00,,,0.00,,2013-04-20 09:11:00,
2013-04-20 12:21:00,67.0,45.0,29.96,NE,49,8.0,12.0,45,0.00,,,0.00,,2013-04-20 09:21:00,
2013-04-20 12:32:00,68.0,45.0,29.96,NE,48,5.0,13.0,43,0.00,,,0.00,,2013-04-20 09:32:00,
2013-04-20 12:43:00,67.0,45.0,29.96,NE,40,7.0,19.0,45,0.00,,,0.00,,2013-04-20 09:43:00,
2013-04-20 12:52:00,67.0,45.0,29.96,NE,40,7.0,19.0,45,0.00,,,0.00,,2013-04-20 09:52:00,
2013-04-20 13:02:00,67.0,45.0,29.96,NE,35,7.0,12.0,45,0.00,,,0.00,,2013-04-20 10:02:00,
2013-04-20 13:12:00,67.0,45.0,29.96,NE,35,7.0,12.0,45,0.00,,,0.00,,2013-04-20 10:12:00,
2013-04-20 13:22:00,68.0,45.0,29.96,NE,56,6.0,12.0,43,0.00,,,0.00,,2013-04-20 10:22:00,
2013-04-20 13:32:00,68.0,46.0,29.96,ENE,72,6.0,15.0,45,0.00,,,0.00,,2013-04-20 10:32:00,
2013-04-20 13:42:00,68.0,45.0,29.96,NE,51,7.0,13.0,44,0.00,,,0.00,,2013-04-20 10:42:00,
2013-04-20 13:53:00,68.0,45.0,29.96,NE,51,7.0,13.0,44,0.00,,,0.00,,2013-04-20 10:53:00,
2013-04-20 14:02:00,68.0,45.0,29.96,NE,39,6.0,15.0,43,0.00,,,0.00,,2013-04-20 11:02:00,
2013-04-20 14:12:00,69.0,46.0,29.95,North,351,5.0,15.0,43,0.00,,,0.00,,2013-04-20 11:12:00,
2013-04-20 14:22:00,69.0,46.0,29.95,North,351,5.0,15.0,43,0.00,,,0.00,,2013-04-20 11:22:00,
2013-04-20 14:31:00,69.0,44.0,29.95,NNE,19,4.0,9.0,40,0.00,,,0.00,,2013-04-20 11:31:00,
2013-04-20 14:42:00,69.0,44.0,29.95,NNE,19,4.0,9.0,40,0.00,,,0.00,,2013-04-20 11:42:00,
2013-04-20 14:52:00,69.0,44.0,29.95,NNE,19,4.0,9.0,40,0.00,,,0.00,,2013-04-20 11:52:00,
2013-04-20 15:01:00,69.0,44.0,29.95,NNE,19,4.0,9.0,40,0.00,,,0.00,,2013-04-20 12:01:00,
2013-04-20 15:11:00,69.0,44.0,29.95,NNE,19,4.0,9.0,40,0.00,,,0.00,,2013-04-20 12:11:00,
2013-04-20 15:22:00,69.0,44.0,29.95,NNE,19,4.0,9.0,40,0.00,,,0.00,,2013-04-20 12:22:00,
2013-04-20 15:32:00,69.0,44.0,29.95,NNE,19,4.0,9.0,40,0.00,,,0.00,,2013-04-20 12:32:00,
2013-04-20 15:41:00,69.0,44.0,29.95,NNE,19,4.0,9.0,40,0.00,,,0.00,,2013-04-20 12:41:00,
2013-04-20 15:52:00,69.0,44.0,29.95,NNE,19,4.0,9.0,40,0.00,,,0.00,,2013-04-20 12:52:00,
2013-04-20 16:02:00,69.0,44.0,29.95,NNE,19,4.0,9.0,40,0.00,,,0.00,,2013-04-20 13:02:00,
2013-04-20 16:11:00,69.0,44.0,29.95,NNE,19,4.0,9.0,40,0.00,,,0.00,,2013-04-20 13:11:00,
2013-04-20 16:21:00,69.0,44.0,29.95,NNE,19,4.0,9.0,40,0.00,,,0.00,,2013-04-20 13:21:00,
2013-04-20 16:31:00,69.0,44.0,29.95,NNE,19,4.0,9.0,40,0.00,,,0.00,,2013-04-20 13:31:00,
2013-04-20 16:41:00,69.0,44.0,29.95,NNE,19,4.0,9.0,40,0.00,,,0.00,,2013-04-20 13:41:00,
2013-04-20 16:52:00,69.0,44.0,29.95,NNE,19,4.0,9.0,40,0.00,,,0.00,,2013-04-20 13:52:00,
2013-04-20 17:01:00,69.0,44.0,29.95,NNE,19,4.0,9.0,40,0.00,,,0.00,,2013-04-20 14:01:00,
2013-04-20 17:11:00,69.0,44.0,29.95,NNE,19,4.0,9.0,40,0.00,,,0.00,,2013-04-20 14:11:00,
2013-04-20 17:21:00,69.0,44.0,29.95,NNE,19,4.0,9.0,40,0.00,,,0.00,,2013-04-20 14:21:00,
2013-04-20 17:31:00,69.0,44.0,29.95,NNE,19,4.0,9.0,40,0.00,,,0.00,,2013-04-20 14:31:00,
2013-04-20 17:41:00,69.0,44.0,29.95,NNE,19,4.0,9.0,40,0.00,,,0.00,,2013-04-20 14:41:00,
2013-04-20 17:52:00,69.0,44.0,29.95,NNE,19,4.0,9.0,40,0.00,,,0.00,,2013-04-20 14:52:00,
2013-04-20 18:01:00,69.0,44.0,29.95,NNE,19,4.0,9.0,40,0.00,,,0.00,,2013-04-20 15:01:00,
2013-04-20 18:11:00,69.0,44.0,29.95,NNE,19,4.0,9.0,40,0.00,,,0.00,,2013-04-20 15:11:00,
2013-04-20 18:21:00,69.0,44.0,29.95,NNE,19,4.0,9.0,40,0.00,,,0.00,,2013-04-20 15:21:00,
2013-04-20 18:33:00,69.0,44.0,29.95,NNE,19,4.0,9.0,40,0.00,,,0.00,,2013-04-20 15:33:00,
2013-04-20 18:43:00,69.0,44.0,29.95,NNE,19,4.0,9.0,40,0.00,,,0.00,,2013-04-20 15:43:00,
2013-04-20 18:53:00,69.0,44.0,29.95,NNE,19,4.0,9.0,40,0.00,,,0.00,,2013-04-20 15:53:00,
2013-04-20 19:03:00,69.0,44.0,29.95,NNE,19,4.0,9.0,40,0.00,,,0.00,,2013-04-20 16:03:00,
2013-04-20 19:12:00,69.0,44.0,29.95,NNE,19,4.0,9.0,40,0.00,,,0.00,,2013-04-20 16:12:00,
2013-04-20 19:23:00,69.0,44.0,29.95,NNE,19,4.0,9.0,40,0.00,,,0.00,,2013-04-20 16:23:00,
2013-04-20 19:32:00,69.0,44.0,29.95,NNE,19,4.0,9.0,40,0.00,,,0.00,,2013-04-20 16:32:00,
2013-04-20 19:41:00,69.0,44.0,29.95,NNE,19,4.0,9.0,40,0.00,,,0.00,,2013-04-20 16:41:00,
2013-04-20 19:52:00,69.0,44.0,29.95,NNE,19,4.0,9.0,40,0.00,,,0.00,,2013-04-20 16:52:00,
2013-04-20 20:02:00,69.0,44.0,29.95,NNE,19,4.0,9.0,40,0.00,,,0.00,,2013-04-20 17:02:00,
2013-04-20 20:11:00,69.0,44.0,29.95,NNE,19,4.0,9.0,40,0.00,,,0.00,,2013-04-20 17:11:00,
2013-04-20 20:22:00,69.0,44.0,29.95,NNE,19,4.0,9.0,40,0.00,,,0.00,,2013-04-20 17:22:00,
2013-04-20 20:32:00,69.0,44.0,29.95,NNE,19,4.0,9.0,40,0.00,,,0.00,,2013-04-20 17:32:00,
2013-04-20 20:41:00,69.0,44.0,29.95,NNE,19,4.0,9.0,40,0.00,,,0.00,,2013-04-20 17:41:00,
2013-04-20 20:52:00,69.0,44.0,29.95,NNE,19,4.0,9.0,40,0.00,,,0.00,,2013-04-20 17:52:00,
2013-04-20 21:01:00,69.0,44.0,29.95,NNE,19,4.0,9.0,40,0.00,,,0.00,,2013-04-20 18:01:00,
2013-04-20 21:12:00,69.0,44.0,29.95,NNE,19,4.0,9.0,40,0.00,,,0.00,,2013-04-20 18:12:00,
2013-04-20 21:22:00,69.0,44.0,29.95,NNE,19,4.0,9.0,40,0.00,,,0.00,,2013-04-20 18:22:00,
2013-04-20 21:32:00,69.0,44.0,29.95,NNE,19,4.0,9.0,40,0.00,,,0.00,,2013-04-20 18:32:00,
2013-04-20 21:41:00,69.0,44.0,29.95,NNE,19,4.0,9.0,40,0.00,,,0.00,,2013-04-20 18:41:00,
2013-04-20 21:52:00,69.0,44.0,29.95,NNE,19,4.0,9.0,40,0.00,,,0.00,,2013-04-20 18:52:00,
2013-04-20 22:01:00,69.0,44.0,29.95,NNE,19,4.0,9.0,40,0.00,,,0.00,,2013-04-20 19:01:00,
2013-04-20 22:11:00,69.0,44.0,29.95,NNE,19,4.0,9.0,40,0.00,,,0.00,,2013-04-20 19:11:00,
2013-04-20 22:21:00,69.0,44.0,29.95,NNE,19,4.0,9.0,40,0.00,,,0.00,,2013-04-20 19:21:00,
2013-04-20 22:31:00,69.0,44.0,29.95,NNE,19,4.0,9.0,40,0.00,,,0.00,,2013-04-20 19:31:00,
2013-04-20 22:41:00,69.0,44.0,29.95,NNE,19,4.0,9.0,40,0.00,,,0.00,,2013-04-20 19:41:00,
2013-04-20 22:52:00,69.0,44.0,29.95,NNE,19,4.0,9.0,40,0.00,,,0.00,,2013-04-20 19:52:00,
2013-04-20 23:01:00,69.0,44.0,29.95,NNE,19,4.0,9.0,40,0.00,,,0.00,,2013-04-20 20:01:00,
2013-04-20 23:11:00,69.0,44.0,29.95,NNE,19,4.0,9.0,40,0.00,,,0.00,,2013-04-20 20:11:00,
2013-04-20 23:21:00,69.0,44.0,29.95,NNE,19,4.0,9.0,40,0.00,,,0.00,,2013-04-20 20:21:00,
2013-04-20 23:32:00,69.0,44.0,29.95,NNE,19,4.0,9.0,40,0.00,,,0.00,,2013-04-20 20:32:00,
2013-04-20 23:42:00,69.0,44.0,29.95,NNE,19,4.0,9.0,40,0.00,,,0.00,,2013-04-20 20:42:00,
2013-04-20 23:52:00,69.0,44.0,29.95,NNE,19,4.0,9.0,40,0.00,,,0.00,,2013-04-20 20:52:00,